"2010-11-29 00:00:00",377581,9.41,54.71,4.217,0.558,6.375,100.4431,0.43,1.629,58.42,0,109.6,13.53,1.18,16.7
"2010-11-29 00:00:30",377582,8.94,61.15,3.923,0.312,6.534,100.4459,0.437,1.618,58.37,0,109.6,13.53,1.19,23.2
"2010-11-29 00:01:00",377583,8.4,64.14,3.599,0.56,6.213,100.4414,0.426,1.639,58.64,0,109.7,13.53,1.18,26.1
"2010-11-29 00:01:30",377584,8.45,61.62,4.355,0.629,6.196,100.4414,0.426,1.623,58.55,0,109.6,13.53,1.18,23.6
"2010-11-29 00:02:00",377585,8.17,63.59,4.811,0.376,6.215,100.4403,0.423,1.616,58.53,0,109.6,13.53,1.18,25.6
"2010-11-29 00:02:30",377586,7.887,66.57,4.453,0.556,6.429,100.4403,0.423,1.629,58.44,0,109.6,13.53,1.18,28.6
"2010-11-29 00:03:00",377587,7.892,65.29,5.65,0.562,5.763,100.4414,0.426,1.619,58.55,0,109.6,13.53,1.18,27.3
"2010-11-29 00:03:30",377588,8.34,65.58,4.326,0.661,5.627,100.4411,0.425,1.61,58.98,0,109.6,13.53,1.18,27.6
"2010-11-29 00:04:00",377589,8.11,61.4,4.319,0.757,5.547,100.4394,0.421,1.582,59.27,0,109.6,13.53,1.17,23.4
"2010-11-29 00:04:30",377590,8.63,61.72,3.573,0.736,5.683,100.4363,0.413,1.577,59.06,0,109.6,13.53,1.17,23.7
"2010-11-29 00:05:00",377591,8.75,66.76,3.857,0.827,5.469,100.4202,0.372,1.565,60.59,0,109.6,13.53,1.13,28.8
"2010-11-29 00:05:30",377592,8.72,66.52,3.155,0.802,5.588,100.4075,0.339,1.546,60.62,0,109.6,13.53,1.09,28.5
"2010-11-29 00:06:00",377593,8.78,66.2,3.891,0.675,5.685,100.3919,0.3,1.524,60.86,0,109.6,13.53,1.05,28.2
"2010-11-29 00:06:30",377594,8.96,57.3,4.692,0.721,5.995,100.3766,0.261,1.496,60.35,0,109.6,13.53,1.01,19.3
"2010-11-29 00:07:00",377595,9.23,52.9,4.895,0.673,5.973,100.3766,0.261,1.495,59.82,0,109.6,13.53,1.01,14.9
"2010-11-29 00:07:30",377596,9.55,52.14,4.741,0.755,5.986,100.3828,0.277,1.488,59.71,0,109.6,13.53,1.03,14.1
"2010-11-29 00:08:00",377597,10.65,52.24,4.657,0.699,6.039,100.3851,0.282,1.484,60.09,0,109.6,13.54,1.04,14.2
"2010-11-29 00:08:30",377598,10.98,52.01,4.188,0.637,6.316,100.3778,0.264,1.483,59.95,0,109.6,13.54,1.02,14.0
"2010-11-29 00:09:00",377599,10.32,53.94,3.684,0.712,6.264,100.3744,0.255,1.465,60.6,0,109.7,13.54,1.01,15.9
"2010-11-29 00:09:30",377600,10.99,52.09,3.528,0.69,6.319,100.3735,0.253,1.448,60.9,0,109.6,13.54,1.01,14.1
"2010-11-29 00:10:00",377601,10.42,53.39,3.806,0.833,6.326,100.3704,0.245,1.436,61.44,0,109.6,13.54,1.00,15.4
"2010-11-29 00:10:30",377602,10.34,52.24,3.946,0.539,6.543,100.3571,0.211,1.416,61.63,0,109.6,13.54,0.96,14.2
"2010-11-29 00:11:00",377603,10.41,51.36,3.734,0.839,6.321,100.3427,0.174,1.382,62.32,0,109.6,13.54,0.93,13.4
"2010-11-29 00:11:30",377604,10.55,52.05,4.625,0.647,6.387,100.3345,0.153,1.375,62.94,0,109.6,13.54,0.91,14.0
"2010-11-29 00:12:00",377605,10.7,52.3,4.681,0.73,6.286,100.3093,0.089,1.335,63.52,0,109.6,13.54,0.84,14.3
"2010-11-29 00:12:30",377606,10.74,50.41,4.462,0.719,6.463,100.3011,0.068,1.315,63.93,0,109.6,13.54,0.82,12.4
"2010-11-29 00:13:00",377607,10.01,55,4.161,0.51,6.472,100.2793,0.013,1.27,63.79,0,109.6,13.54,0.76,17.0
"2010-11-29 00:13:30",377608,9.49,52.94,4.332,0.589,6.475,100.2716,-0.007,1.264,63.63,0,109.6,13.54,0.74,14.9
"2010-11-29 00:14:00",377609,9.19,54.43,3.512,0.661,6.26,100.2626,-0.03,1.209,64.27,0,109.6,13.53,0.72,16.4
"2010-11-29 00:14:30",377610,8.84,58.12,3.583,0.565,6.297,100.2405,-0.086,1.173,64.58,0,109.6,13.53,0.67,20.1
"2010-11-29 00:15:00",377611,9.16,54.5,3.985,0.661,6.065,100.2377,-0.094,1.146,64.94,0,109.6,13.53,0.66,16.5
"2010-11-29 00:15:30",377612,9.48,53.79,3.902,0.608,6.068,100.2247,-0.127,1.129,65.3,0,109.6,13.53,0.62,15.8
"2010-11-29 00:16:00",377613,10.15,56.65,3.919,0.587,6.001,100.2077,-0.17,1.086,65.78,0,109.6,13.53,0.58,18.7
"2010-11-29 00:16:30",377614,10.21,61.84,3.079,0.56,6.183,100.2043,-0.179,1.065,65.85,0,109.6,13.53,0.57,23.8
"2010-11-29 00:17:00",377615,10.61,57.5,4.095,0.906,6.134,100.1961,-0.2,1.056,65.81,0,109.6,13.53,0.55,19.5
"2010-11-29 00:17:30",377616,11.05,58.93,4.322,0.71,6.141,100.1865,-0.224,1.037,65.96,0,109.6,13.53,0.53,20.9
"2010-11-29 00:18:00",377617,10.96,59.62,4.354,0.578,6.415,100.1797,-0.241,1.004,65.84,0,109.6,13.53,0.51,21.6
"2010-11-29 00:18:30",377618,11,58.82,4.206,0.496,6.757,100.1746,-0.254,0.997,65.97,0,109.6,13.53,0.50,20.8
"2010-11-29 00:19:00",377619,10.53,60.53,4.315,0.544,6.645,100.1712,-0.263,0.986,66,0,109.6,13.54,0.49,22.5
"2010-11-29 00:19:30",377620,10.5,61.51,4.76,0.6,6.538,100.1763,-0.25,1,65.93,0,109.6,13.54,0.50,23.5
"2010-11-29 00:20:00",377621,10.66,60.83,3.65,0.654,6.312,100.1771,-0.248,0.956,66.49,0,109.6,13.55,0.50,22.8
"2010-11-29 00:20:30",377622,10.88,57.27,3.416,0.676,6.323,100.1619,-0.287,0.953,67.45,0,109.6,13.55,0.46,19.3
"2010-11-29 00:21:00",377623,10.6,57.93,4.477,0.509,6.262,100.1491,-0.319,0.94,68.16,0,109.6,13.55,0.43,19.9
"2010-11-29 00:21:30",377624,10.21,61.39,3.627,0.643,6.265,100.1452,-0.329,0.899,68.37,0,109.6,13.55,0.42,23.4
"2010-11-29 00:22:00",377625,10.08,63.83,3.723,0.602,6.364,100.1316,-0.364,0.873,68.15,0,109.6,13.55,0.39,25.8
"2010-11-29 00:22:30",377626,9.54,67.27,3.437,0.554,6.498,100.1208,-0.391,0.858,67.97,0,109.6,13.55,0.36,29.3
"2010-11-29 00:23:00",377627,9.74,67.15,4.018,0.581,6.003,100.1189,-0.397,0.836,67.89,0,109.6,13.55,0.35,29.2
"2010-11-29 00:23:30",377628,9.68,65.89,3.925,0.596,6.056,100.1191,-0.396,0.838,68.09,0,109.6,13.55,0.35,27.9
"2010-11-29 00:24:00",377629,9.32,65.28,3.738,0.611,6.075,100.1194,-0.395,0.808,67.98,0,109.6,13.55,0.36,27.3
"2010-11-29 00:24:30",377630,9.27,66.78,3.561,0.564,6.174,100.1223,-0.388,0.799,67.67,0,109.6,13.55,0.36,28.8
"2010-11-29 00:25:00",377631,8.89,67.52,3.785,0.569,6.026,100.1214,-0.39,0.804,67.32,0,109.6,13.55,0.36,29.5
"2010-11-29 00:25:30",377632,8.79,70.05,4.658,0.584,5.827,100.1228,-0.386,0.817,67.27,0,109.6,13.55,0.36,32.1
"2010-11-29 00:26:00",377633,8.93,70.92,4.13,0.572,5.77,100.1265,-0.377,0.809,67.35,0,109.6,13.55,0.37,32.9
"2010-11-29 00:26:30",377634,9.38,70.47,3.962,0.402,5.946,100.1308,-0.366,0.804,67.21,0,109.6,13.55,0.38,32.5
"2010-11-29 00:27:00",377635,9.98,68.27,3.813,0.64,5.658,100.1398,-0.343,0.811,67.6,0,109.6,13.55,0.41,30.3
"2010-11-29 00:27:30",377636,10.28,69.19,4.158,0.566,5.677,100.1333,-0.36,0.842,68.61,0,109.6,13.55,0.39,31.2
"2010-11-29 00:28:00",377637,10.38,70.95,4.057,0.585,5.698,100.1279,-0.373,0.808,68.99,0,109.6,13.55,0.38,32.9
"2010-11-29 00:28:30",377638,10.29,72.37,3.462,0.552,5.94,100.1274,-0.375,0.811,69.22,0,109.6,13.55,0.38,34.4
"2010-11-29 00:29:00",377639,10.13,73.74,4.195,0.595,5.791,100.1276,-0.374,0.802,69.43,0,109.6,13.55,0.38,35.7
"2010-11-29 00:29:30",377640,10.79,74.41,4.015,0.685,5.936,100.1206,-0.392,0.811,69.41,0,109.6,13.55,0.36,36.4
"2010-11-29 00:30:00",377641,10.97,72.98,4.183,0.615,6.116,100.1169,-0.402,0.796,69.23,0,109.6,13.55,0.35,35.0
"2010-11-29 00:30:30",377642,10.74,69.86,4.304,0.606,6.279,100.1251,-0.381,0.785,68.95,0,109.6,13.55,0.37,31.9
"2010-11-29 00:31:00",377643,10.65,72.43,4.548,0.513,6.181,100.1291,-0.371,0.8,68.96,0,109.7,13.55,0.38,34.4
"2010-11-29 00:31:30",377644,11.23,70.86,4.347,0.577,6.189,100.1293,-0.37,0.8,69.08,0,109.6,13.55,0.38,32.9
"2010-11-29 00:32:00",377645,11.01,72.31,4.746,0.631,6.296,100.1299,-0.368,0.806,69.06,0,109.6,13.55,0.38,34.3
"2010-11-29 00:32:30",377646,10.79,74.03,3.69,0.574,6.338,100.1333,-0.36,0.792,69.13,0,109.6,13.55,0.39,36.0
"2010-11-29 00:33:00",377647,11.49,73.96,4.621,0.43,6.32,100.1339,-0.358,0.8,69.3,0,109.6,13.55,0.39,36.0
"2010-11-29 00:33:30",377648,10.84,71.04,5.54,0.59,6.39,100.1344,-0.357,0.809,69.31,0,109.6,13.55,0.39,33.0
"2010-11-29 00:34:00",377649,10.54,70.97,4.232,0.609,6.288,100.1339,-0.358,0.812,69.04,0,109.6,13.55,0.39,33.0
"2010-11-29 00:34:30",377650,10.32,76.05,4.046,0.57,6.559,100.1356,-0.354,0.812,69.03,0,109.6,13.55,0.40,38.1
"2010-11-29 00:35:00",377651,10.17,78.72,4.561,0.561,6.476,100.1373,-0.35,0.833,69.04,0,109.7,13.55,0.40,40.7
"2010-11-29 00:35:30",377652,10.14,81.2,4.45,0.597,6.211,100.1378,-0.348,0.831,69.02,0,109.6,13.55,0.40,43.2
"2010-11-29 00:36:00",377653,9.98,83.5,4.518,0.548,6.154,100.1415,-0.339,0.831,68.75,0,109.6,13.55,0.41,45.5
"2010-11-29 00:36:30",377654,10.46,83.7,4.238,0.589,6.102,100.1404,-0.342,0.829,68.86,0,109.6,13.56,0.41,45.7
"2010-11-29 00:37:00",377655,10.77,85.5,3.432,0.722,6.066,100.1364,-0.352,0.832,68.81,0,109.6,13.56,0.40,47.5
"2010-11-29 00:37:30",377656,10.97,80.6,3.723,0.649,6.014,100.137,-0.35,0.84,68.62,0,109.6,13.56,0.40,42.6
"2010-11-29 00:38:00",377657,10.47,81.6,3.524,0.678,5.919,100.1373,-0.35,0.835,68.66,0,109.6,13.56,0.40,43.6
"2010-11-29 00:38:30",377658,10.19,85.4,3.026,0.664,6.079,100.1359,-0.353,0.834,68.86,0,109.6,13.56,0.40,47.4
"2010-11-29 00:39:00",377659,9.92,88.3,3.84,0.639,5.985,100.1359,-0.353,0.823,69.11,0,109.6,13.56,0.40,50.3
"2010-11-29 00:39:30",377660,10.24,88.7,3.823,0.579,6.041,100.1353,-0.355,0.832,69.4,0,109.6,13.56,0.40,50.7
"2010-11-29 00:40:00",377661,10.19,88.9,4.117,0.589,6.029,100.1211,-0.391,0.792,69.62,0,109.6,13.56,0.36,50.9
"2010-11-29 00:40:30",377662,10.06,90.4,4.205,0.409,6.111,100.1135,-0.41,0.805,69.79,0,109.6,13.56,0.34,52.4
"2010-11-29 00:41:00",377663,9.76,94.4,3.653,0.66,5.907,100.1019,-0.44,0.778,70.15,0,109.6,13.56,0.31,56.4
"2010-11-29 00:41:30",377664,9.79,93.7,4.113,0.648,5.817,100.0962,-0.454,0.772,70.4,0,109.6,13.56,0.30,55.7
"2010-11-29 00:42:00",377665,9.65,92.1,3.648,0.613,5.716,100.0812,-0.492,0.715,70.51,0,109.6,13.56,0.26,54.1
"2010-11-29 00:42:30",377666,9.61,97.5,4.359,0.444,5.682,100.0693,-0.523,0.699,70.7,0,109.6,13.56,0.23,59.5
"2010-11-29 00:43:00",377667,9.51,99.2,3.748,0.518,5.407,100.0659,-0.531,0.685,71.05,0,109.6,13.56,0.22,61.2
"2010-11-29 00:43:30",377668,9.4,99.7,4.484,0.524,5.629,100.0507,-0.57,0.688,71.19,0,109.6,13.56,0.18,61.7
"2010-11-29 00:44:00",377669,9.33,99.4,3.401,0.632,5.187,100.0461,-0.582,0.631,71.29,0,109.6,13.56,0.17,61.4
"2010-11-29 00:44:30",377670,9.37,100,3.788,0.547,5.294,100.0351,-0.61,0.618,71.66,0,109.6,13.56,0.14,62.0
"2010-11-29 00:45:00",377671,9.24,98.8,4.495,0.599,5.083,100.0255,-0.635,0.578,71.9,0,109.7,13.56,0.12,60.8
"2010-11-29 00:45:30",377672,9.15,101.6,3.292,0.922,4.859,100.0093,-0.676,0.58,72.14,0,109.6,13.56,0.07,63.6
"2010-11-29 00:46:00",377673,8.81,105,4.417,0.535,5.318,100,-0.7,0.517,72.46,0,109.6,13.56,0.05,67.0
"2010-11-29 00:46:30",377674,8.47,104.2,3.436,0.76,5.229,99.99632,-0.709,0.502,72.6,0,109.6,13.56,0.04,66.2
"2010-11-29 00:47:00",377675,8.64,106.2,3.224,0.696,4.766,99.98329,-0.742,0.476,72.71,0,109.6,13.56,0.01,68.2
"2010-11-29 00:47:30",377676,8.77,105.1,4.323,0.688,4.517,99.97311,-0.768,0.494,72.97,0,109.6,13.56,-0.02,67.1
"2010-11-29 00:48:00",377677,8.84,101.4,3.717,0.686,4.603,99.96518,-0.788,0.443,73.41,0,109.6,13.55,-0.04,63.4
"2010-11-29 00:48:30",377678,9.44,99.4,3.685,0.722,4.595,99.94537,-0.839,0.419,73.99,0,109.6,13.55,-0.09,61.4
"2010-11-29 00:49:00",377679,9.35,98.6,3.726,0.634,4.857,99.93235,-0.872,0.357,74.28,0,109.6,13.55,-0.12,60.6
"2010-11-29 00:49:30",377680,9.37,99.1,4.264,0.674,4.921,99.93206,-0.873,0.343,74.19,0,109.6,13.55,-0.12,61.1
"2010-11-29 00:50:00",377681,9.31,99.9,3.505,0.619,4.789,99.93206,-0.873,0.339,73.86,0,109.6,13.56,-0.12,61.9
"2010-11-29 00:50:30",377682,8.99,100.7,3.562,0.746,4.906,99.93206,-0.873,0.334,73.56,0,109.6,13.56,-0.12,62.7
"2010-11-29 00:51:00",377683,9.06,99.9,3.362,0.649,4.887,99.93235,-0.872,0.324,73.34,0,109.6,13.56,-0.12,61.9
"2010-11-29 00:51:30",377684,9.54,99.1,2.574,0.675,4.805,99.9349,-0.866,0.342,73.35,0,109.6,13.56,-0.12,61.1
"2010-11-29 00:52:00",377685,9.22,98,3.455,0.744,4.797,99.94367,-0.843,0.347,73.45,0,109.6,13.56,-0.09,60.0
"2010-11-29 00:52:30",377686,9.2,96.2,3.6,0.513,4.946,99.94848,-0.831,0.347,73.61,0,109.6,13.56,-0.08,58.2
"2010-11-29 00:53:00",377687,9.32,97.8,2.817,0.773,4.871,99.94735,-0.834,0.357,73.8,0,109.6,13.56,-0.08,59.8
"2010-11-29 00:53:30",377688,9.14,92.9,4.355,0.531,5.291,99.94508,-0.84,0.354,73.92,0,109.6,13.56,-0.09,54.9
"2010-11-29 00:54:00",377689,9.43,88,3.533,0.648,5.309,99.9465,-0.836,0.346,73.75,0,109.6,13.56,-0.09,50.0
"2010-11-29 00:54:30",377690,9.81,86.1,2.726,0.639,5.068,99.94621,-0.837,0.353,73.92,0,109.6,13.56,-0.09,48.1
"2010-11-29 00:55:00",377691,9.96,83.8,3.875,0.569,5.273,99.94678,-0.835,0.357,73.95,0,109.6,13.56,-0.09,45.8
"2010-11-29 00:55:30",377692,9.76,81.6,3.427,0.69,5.309,99.94933,-0.829,0.357,73.9,0,109.6,13.57,-0.08,43.6
"2010-11-29 00:56:00",377693,9.95,81.3,4.074,0.571,5.362,99.95187,-0.822,0.351,73.68,0,109.6,13.57,-0.07,43.3
"2010-11-29 00:56:30",377694,9.9,80.4,3.383,0.559,5.548,99.95528,-0.814,0.36,73.55,0,109.6,13.57,-0.06,42.4
"2010-11-29 00:57:00",377695,9.48,80.2,3.724,0.398,5.615,99.96546,-0.788,0.363,73.39,0,109.6,13.57,-0.04,42.2
"2010-11-29 00:57:30",377696,9.15,81.4,4.177,0.43,5.497,99.97084,-0.774,0.39,72.78,0,109.6,13.57,-0.02,43.4
"2010-11-29 00:58:00",377697,8.71,85.3,4.236,0.371,5.445,99.97282,-0.769,0.39,72.7,0,109.6,13.57,-0.02,47.3
"2010-11-29 00:58:30",377698,8.63,88.8,3.664,0.727,5.308,99.97509,-0.763,0.427,73.04,0,109.6,13.57,-0.01,50.8
"2010-11-29 00:59:00",377699,9.05,89.5,3.537,0.495,5.493,99.97311,-0.768,0.428,73.51,0,109.6,13.57,-0.02,51.5
"2010-11-29 00:59:30",377700,8.73,89.8,3.769,0.701,5.323,99.97651,-0.759,0.39,73.53,0,109.6,13.57,-0.01,51.8
"2010-11-29 01:00:00",377701,9.07,93.3,4.566,0.693,5.211,99.96235,-0.796,0.395,73.79,0,109.6,13.57,-0.05,55.3
"2010-11-29 01:00:30",377702,9.57,97.4,3.613,0.778,5.064,99.95611,-0.811,0.399,73.46,0,109.6,13.57,-0.06,59.4
"2010-11-29 01:01:00",377703,9.82,98.6,3.468,0.731,5.018,99.94988,-0.827,0.363,72.31,0,109.6,13.57,-0.08,60.6
"2010-11-29 01:01:30",377704,9.63,99,3.319,0.511,4.973,99.94734,-0.834,0.346,71.36,0,109.6,13.57,-0.08,61.0
"2010-11-29 01:02:00",377705,9.71,99.1,2.367,0.612,5.245,99.9581,-0.806,0.345,70.68,0,109.6,13.57,-0.06,61.1
"2010-11-29 01:02:30",377706,9.59,98.3,3.716,0.646,5.427,99.96574,-0.787,0.381,69.64,0,109.6,13.57,-0.04,60.3
"2010-11-29 01:03:00",377707,9.59,97.5,3.956,0.694,5.224,99.98216,-0.745,0.393,68.97,0,109.6,13.56,0.00,59.5
"2010-11-29 01:03:30",377708,9.68,97.8,3.315,0.672,5.076,99.98189,-0.746,0.389,69.16,0,109.6,13.56,0.00,59.8
"2010-11-29 01:04:00",377709,9.87,98.2,3.797,0.73,5.134,99.98329,-0.742,0.421,69.32,0,109.6,13.56,0.01,60.2
"2010-11-29 01:04:30",377710,10.13,97.7,2.913,0.689,5.381,99.98669,-0.734,0.415,68.77,0,109.6,13.56,0.02,59.7
"2010-11-29 01:05:00",377711,9.95,95.9,3.909,0.453,5.431,100.0003,-0.699,0.432,67.84,0,109.6,13.56,0.05,57.9
"2010-11-29 01:05:30",377712,9.86,94.5,4.422,0.362,5.473,100.011,-0.671,0.466,67.73,0,109.6,13.56,0.08,56.5
"2010-11-29 01:06:00",377713,9.51,92,4.162,0.526,5.785,100.0187,-0.652,0.476,67.19,0,109.6,13.56,0.10,54.0
"2010-11-29 01:06:30",377714,9.36,90.1,3.596,0.497,5.969,100.0201,-0.648,0.499,66.88,0,109.6,13.56,0.10,52.1
"2010-11-29 01:07:00",377715,9.32,87.7,4.233,0.544,5.74,100.0326,-0.617,0.508,66.72,0,109.6,13.56,0.13,49.7
"2010-11-29 01:07:30",377716,9.93,84.9,4.154,0.632,5.574,100.0461,-0.582,0.546,66.79,0,109.6,13.56,0.17,46.9
"2010-11-29 01:08:00",377717,10.22,84.5,4.217,0.545,5.557,100.0546,-0.56,0.548,67.19,0,109.6,13.57,0.19,46.5
"2010-11-29 01:08:30",377718,10.34,87.4,3.711,0.531,5.687,100.0566,-0.555,0.576,67.07,0,109.6,13.57,0.19,49.4
"2010-11-29 01:09:00",377719,10.13,86.3,4.163,0.517,5.755,100.0563,-0.556,0.567,67.05,0,109.6,13.57,0.19,48.3
"2010-11-29 01:09:30",377720,9.82,85.9,4.419,0.562,5.754,100.0546,-0.56,0.585,67.08,0,109.6,13.57,0.19,47.9
"2010-11-29 01:10:00",377721,9.55,87.6,4.261,0.614,5.828,100.0535,-0.563,0.573,66.96,0,109.6,13.57,0.19,49.6
"2010-11-29 01:10:30",377722,9.37,89.7,3.62,0.383,5.945,100.0563,-0.556,0.576,66.96,0,109.6,13.57,0.19,51.7
"2010-11-29 01:11:00",377723,9.14,89.2,3.987,0.622,5.767,100.0546,-0.56,0.583,67.18,0,109.6,13.57,0.19,51.2
"2010-11-29 01:11:30",377724,9.08,88.9,4.078,0.679,5.666,100.047,-0.58,0.592,67.4,0,109.6,13.57,0.17,50.9
"2010-11-29 01:12:00",377725,8.92,87.6,3.829,0.571,5.559,100.0478,-0.578,0.589,67.28,0,109.6,13.57,0.17,49.6
"2010-11-29 01:12:30",377726,8.86,87.6,3.49,0.573,5.481,100.0544,-0.561,0.58,67.3,0,109.6,13.57,0.19,49.6
"2010-11-29 01:13:00",377727,9.11,85.5,3.763,0.663,5.388,100.0512,-0.569,0.585,67.54,0,109.6,13.58,0.18,47.5
"2010-11-29 01:13:30",377728,9.12,86.4,3.301,0.518,5.378,100.0462,-0.582,0.585,67.55,0,109.6,13.58,0.17,48.4
"2010-11-29 01:14:00",377729,9.03,86.1,3.578,0.658,5.242,100.0425,-0.591,0.579,67.57,0,109.6,13.58,0.16,48.1
"2010-11-29 01:14:30",377730,8.88,82.8,3.456,0.671,5.25,100.0357,-0.609,0.572,67.77,0,109.6,13.58,0.14,44.8
"2010-11-29 01:15:00",377731,8.82,74.84,5.143,0.472,5.278,100.0311,-0.62,0.573,67.78,0,109.6,13.58,0.13,36.8
"2010-11-29 01:15:30",377732,8.83,75.05,2.774,0.684,5.158,100.0269,-0.631,0.593,67.99,0,109.6,13.58,0.12,37.1
"2010-11-29 01:16:00",377733,9.1,76.86,4.021,0.666,5.533,100.0258,-0.634,0.557,68.22,0,109.6,13.58,0.12,38.9
"2010-11-29 01:16:30",377734,9.26,80.1,2.819,0.655,4.858,100.0252,-0.635,0.537,69.3,0,109.6,13.58,0.11,42.1
"2010-11-29 01:17:00",377735,9.17,80.1,3.557,0.753,5.187,100.0091,-0.676,0.533,69.36,0,109.6,13.58,0.07,42.1
"2010-11-29 01:17:30",377736,9.09,76.41,4.278,0.606,5.354,100.0011,-0.697,0.52,68.68,0,109.6,13.58,0.05,38.4
"2010-11-29 01:18:00",377737,8.98,77.67,4.439,0.562,5.251,100.0011,-0.697,0.512,68.17,0,109.6,13.58,0.05,39.7
"2010-11-29 01:18:30",377738,8.93,76.26,3.726,0.678,5.464,100.002,-0.695,0.507,68.21,0,109.6,13.58,0.06,38.3
"2010-11-29 01:19:00",377739,8.6,75.08,4.552,0.635,5.282,100.0048,-0.687,0.492,68.06,0,109.6,13.57,0.06,37.1
"2010-11-29 01:19:30",377740,8.36,74.34,4.248,0.596,5.377,100.0116,-0.67,0.505,67.32,0,109.6,13.57,0.08,36.3
"2010-11-29 01:20:00",377741,8.15,74.38,3.701,0.75,5.33,100.0252,-0.635,0.503,66.88,0,109.5,13.57,0.11,36.4
"2010-11-29 01:20:30",377742,8.21,75.45,4.06,0.557,5.564,100.0263,-0.632,0.516,66.39,0,109.5,13.57,0.12,37.4
"2010-11-29 01:21:00",377743,7.655,76.4,4.25,0.895,4.899,100.0379,-0.603,0.528,66.29,0,109.5,13.57,0.15,38.4
"2010-11-29 01:21:30",377744,6.239,72.75,5.416,1.095,2.665,100.0427,-0.591,0.456,66.9,0,109.6,13.57,0.16,34.8
"2010-11-29 01:22:00",377745,7.049,74.99,6.398,1.109,3.832,100.036,-0.608,0.37,67.19,0,109.6,13.57,0.14,37.0
"2010-11-29 01:22:30",377746,7.362,74.8,5.747,1.064,5.06,100.0314,-0.619,0.524,67.07,0,109.5,13.58,0.13,36.8
"2010-11-29 01:23:00",377747,7.476,73.32,3.225,0.771,5.893,100.036,-0.608,0.552,66.65,0,109.5,13.58,0.14,35.3
"2010-11-29 01:23:30",377748,7.415,76.94,5.518,0.74,6.161,100.0464,-0.581,0.565,66.36,0,109.5,13.58,0.17,38.9
"2010-11-29 01:24:00",377749,7.659,77.68,3.912,0.631,5.874,100.0529,-0.565,0.574,66.55,0,109.5,13.58,0.19,39.7
"2010-11-29 01:24:30",377750,7.141,76.8,4.96,1.042,4.816,100.0583,-0.551,0.521,66.43,0,109.5,13.58,0.20,38.8
"2010-11-29 01:25:00",377751,7.557,77.26,4.661,0.764,4.239,100.064,-0.536,0.466,65.95,0,109.5,13.58,0.21,39.3
"2010-11-29 01:25:30",377752,5.3,65.34,8.59,0.779,1.909,100.0657,-0.532,0.45,65.55,0,109.6,13.58,0.22,27.3
"2010-11-29 01:26:00",377753,7.364,80.7,6.236,1.041,4.731,100.0713,-0.518,0.554,66.01,0,109.5,13.58,0.23,42.7
"2010-11-29 01:26:30",377754,7.304,82.2,5.432,0.793,5.987,100.0682,-0.526,0.621,66.35,0,109.5,13.59,0.22,44.2
"2010-11-29 01:27:00",377755,7.28,85.4,3.776,0.755,6.115,100.0671,-0.529,0.619,66.64,0,109.5,13.59,0.22,47.4
"2010-11-29 01:27:30",377756,7.202,87.6,2.69,0.769,5.742,100.0578,-0.552,0.629,67.78,0,109.5,13.59,0.20,49.6
"2010-11-29 01:28:00",377757,6.813,85.1,5.398,1.024,4.469,100.0331,-0.615,0.473,68.29,0,109.5,13.59,0.13,47.1
"2010-11-29 01:28:30",377758,6.552,86.7,6.214,0.963,3.949,100.0212,-0.645,0.415,68.84,0,109.5,13.59,0.10,48.7
"2010-11-29 01:29:00",377759,5.118,77.59,5.192,0.902,1.66,100,-0.7,0.318,68.94,0,109.6,13.59,0.05,39.6
"2010-11-29 01:29:30",377760,6.044,77.16,6.578,1.296,3.999,99.99943,-0.701,0.452,68.68,0,109.5,13.59,0.05,39.2
"2010-11-29 01:30:00",377761,7.253,88.6,4.843,0.838,5.086,99.98188,-0.746,0.44,69.89,0,109.5,13.59,0.00,50.6
"2010-11-29 01:30:30",377762,6.979,83.5,4.499,0.921,5.095,99.95582,-0.812,0.387,71.02,0,109.5,13.59,-0.06,45.5
"2010-11-29 01:31:00",377763,7.105,85.5,3.985,0.773,5.448,99.93374,-0.869,0.34,71.11,0,109.5,13.59,-0.12,47.5
"2010-11-29 01:31:30",377764,6.785,85.1,5.355,1.028,4.266,99.9244,-0.892,0.283,71.56,0,109.5,13.59,-0.14,47.1
"2010-11-29 01:32:00",377765,6.719,85.1,5.479,1.074,3.736,99.89608,-0.965,0.219,72.67,0,109.5,13.59,-0.22,47.1
"2010-11-29 01:32:30",377766,6.984,86.2,5.003,0.682,4.197,99.86607,-1.041,0.169,73.79,0,109.6,13.59,-0.29,48.2
"2010-11-29 01:33:00",377767,6.375,79.86,6.936,1.246,3.246,99.83208,-1.128,0.118,74.59,0,109.5,13.59,-0.38,41.9
"2010-11-29 01:33:30",377768,6.471,77.88,6.627,1.235,3.472,99.82925,-1.135,0.054,74.07,0,109.5,13.59,-0.39,39.9
"2010-11-29 01:34:00",377769,7.269,80,5.36,0.845,4.717,99.827,-1.141,0.032,73.95,0,109.5,13.59,-0.39,42.0
"2010-11-29 01:34:30",377770,6.785,74.94,5.553,1.056,3.921,99.81509,-1.171,-0.025,74.12,0,109.6,13.59,-0.42,36.9
"2010-11-29 01:35:00",377771,6.641,72.47,5.392,1.176,3.662,99.79585,-1.22,0.04,75.32,0,109.5,13.59,-0.47,34.5
"2010-11-29 01:35:30",377772,7.09,78.83,2.982,0.836,4.755,99.76668,-1.294,-0.015,76.02,0,109.5,13.59,-0.55,40.8
"2010-11-29 01:36:00",377773,6.904,81.5,3.421,0.64,5.138,99.76243,-1.305,-0.052,75.05,0,109.5,13.59,-0.56,43.5
"2010-11-29 01:36:30",377774,6.888,79.69,3.921,0.557,4.875,99.79102,-1.232,-0.047,73.57,0,109.5,13.58,-0.48,41.7
"2010-11-29 01:37:00",377775,6.468,74.09,6.017,1.139,3.085,99.81001,-1.184,-0.171,72.96,0,109.5,13.58,-0.44,36.1
"2010-11-29 01:37:30",377776,5.565,65.56,3.667,1.049,1.65,99.8301,-1.133,-0.219,72.55,0,109.5,13.58,-0.38,27.6
"2010-11-29 01:38:00",377777,5.563,68.77,5.229,1.039,2.292,99.84029,-1.107,-0.102,71.7,0,109.5,13.59,-0.36,30.8
"2010-11-29 01:38:30",377778,7.22,72.47,4.347,0.568,5.868,99.86266,-1.05,0.065,71.4,0,109.5,13.59,-0.30,34.5
"2010-11-29 01:39:00",377779,7.575,69.98,4.301,0.336,5.849,99.88305,-0.998,0.108,70.78,0,109.5,13.59,-0.25,32.0
"2010-11-29 01:39:30",377780,7.543,67.84,2.835,0.835,5.432,99.89693,-0.962,0.136,70.89,0,109.5,13.59,-0.21,29.8
"2010-11-29 01:40:00",377781,7.04,64.56,5.27,1.144,4.325,99.89806,-0.959,0.112,70.58,0,109.5,13.59,-0.21,26.6
"2010-11-29 01:40:30",377782,7.018,61.35,5.742,1.161,4.162,99.89891,-0.957,0.139,70.15,0,109.5,13.59,-0.21,23.3
"2010-11-29 01:41:00",377783,7.656,55.11,5.786,1.109,4.143,99.90287,-0.947,0.201,70.46,0,109.5,13.59,-0.20,17.1
"2010-11-29 01:41:30",377784,7.919,53.02,5.934,1.044,4.039,99.89891,-0.957,0.147,71.04,0,109.5,13.59,-0.21,15.0
"2010-11-29 01:42:00",377785,7.973,52.05,5.821,1.056,4.239,99.89126,-0.977,0.119,72.17,0,109.5,13.59,-0.23,14.0
"2010-11-29 01:42:30",377786,8.37,53.69,3.02,0.761,5.511,99.8754,-1.017,0.17,72.36,0,109.5,13.59,-0.27,15.7
"2010-11-29 01:43:00",377787,8.17,51.05,4.492,0.65,6.103,99.86521,-1.043,0.147,72.5,0,109.5,13.59,-0.29,13.0
"2010-11-29 01:43:30",377788,8.06,49.95,3.797,0.524,5.959,99.86408,-1.046,0.118,72.07,0,109.5,13.59,-0.30,12.0
"2010-11-29 01:44:00",377789,8.43,52.64,2.981,0.466,5.614,99.86408,-1.046,0.13,72.4,0,109.5,13.59,-0.30,14.6
"2010-11-29 01:44:30",377790,8.17,53.86,3.114,0.64,5.568,99.86324,-1.048,0.115,72.65,0,109.6,13.59,-0.30,15.9
"2010-11-29 01:45:00",377791,8.08,54.08,3.672,0.74,5.383,99.84879,-1.085,0.111,72.72,0,109.5,13.59,-0.34,16.1
"2010-11-29 01:45:30",377792,8.08,59.37,3.851,0.754,5.343,99.84822,-1.086,0.094,72.29,0,109.5,13.59,-0.34,21.4
"2010-11-29 01:46:00",377793,8.47,56.43,4.048,0.695,5.252,99.86124,-1.053,0.104,71.43,0,109.5,13.59,-0.30,18.4
"2010-11-29 01:46:30",377794,8.68,55.02,4.23,0.67,5.617,99.8737,-1.022,0.129,70.56,0,109.5,13.59,-0.27,17.0
"2010-11-29 01:47:00",377795,8.59,57.75,4.768,0.606,5.325,99.88616,-0.99,0.16,70.56,0,109.5,13.59,-0.24,19.8
"2010-11-29 01:47:30",377796,8.4,56.81,4.891,0.565,5.145,99.88277,-0.998,0.177,71.36,0,109.5,13.59,-0.25,18.8
"2010-11-29 01:48:00",377797,8.52,57.79,5.04,0.51,5.159,99.87824,-1.01,0.153,71.74,0,109.5,13.59,-0.26,19.8
"2010-11-29 01:48:30",377798,8.43,60.58,3.92,0.606,5.27,99.86804,-1.036,0.144,71.95,0,109.5,13.59,-0.29,22.6
"2010-11-29 01:49:00",377799,8.39,60.6,4.506,0.683,5.139,99.86408,-1.046,0.153,72.21,0,109.6,13.59,-0.30,22.6